This is the latest recevied weather packets stored in our database for station/object KB4MOX. If no packets are shown the sender has not sent any weather packets the latest 10 day(s).
| Time | Temp. | Humidity | Pressure | Rain* | Wind** | Luminosity | Snow |
|---|---|---|---|---|---|---|---|
| 1787607838 | 35° C | 33% | 1013.8 hPa | 0 mm | - | 310 W/m² | - |
| 1787607534 | 35° C | 34% | 1014 hPa | 0 mm | - | 325 W/m² | - |
| 1787607231 | 35° C | 34% | 1014.1 hPa | 0 mm | - | 345 W/m² | - |
| 1787606926 | 35° C | 35% | 1014.1 hPa | 0 mm | - | 358 W/m² | - |
| 1787606624 | 34.44° C | 35% | 1014.1 hPa | 0 mm | - | 380 W/m² | - |
| 1787606319 | 34.44° C | 34% | 1014.2 hPa | 0 mm | - | 392 W/m² | - |
| 1787606014 | 35° C | 34% | 1014.1 hPa | 0 mm | - | 413 W/m² | - |
| 1787605713 | 35° C | 34% | 1014.1 hPa | 0 mm | - | 427 W/m² | - |
| 1787605408 | 35° C | 33% | 1014.1 hPa | 0 mm | - | 450 W/m² | - |
| 1787605105 | 35° C | 34% | 1014.1 hPa | 0 mm | - | 458 W/m² | - |
| 1787604803 | 35° C | 34% | 1014 hPa | 0 mm | - | 474 W/m² | - |
| 1787604499 | 35.56° C | 33% | 1014.2 hPa | 0 mm | - | 494 W/m² | - |
| 1787604198 | 35° C | 36% | 1014.2 hPa | 0 mm | - | 507 W/m² | - |
| 1787603894 | 35° C | 34% | 1014.2 hPa | 0 mm | - | 525 W/m² | - |
| 1787603593 | 34.44° C | 36% | 1014.1 hPa | 0 mm | - | 537 W/m² | - |
| 1787603288 | 35° C | 34% | 1014.4 hPa | 0 mm | - | 554 W/m² | - |
| 1787602985 | 35° C | 37% | 1014.3 hPa | 0 mm | - | 563 W/m² | - |
| 1787602680 | 34.44° C | 38% | 1014.5 hPa | 0 mm | - | 578 W/m² | - |
| 1787602375 | 35° C | 36% | 1014.4 hPa | 0 mm | - | 592 W/m² | - |
| 1787602070 | 34.44° C | 36% | 1014.6 hPa | 0 mm | - | 602 W/m² | - |
| 1787601768 | 35° C | 35% | 1014.5 hPa | 0 mm | - | 615 W/m² | - |
| 1787601464 | 34.44° C | 36% | 1014.5 hPa | 0 mm | - | 626 W/m² | - |
| 1787601164 | 34.44° C | 36% | 1014.7 hPa | 0 mm | - | 641 W/m² | - |
| 1787600862 | 34.44° C | 37% | 1014.9 hPa | 0 mm | - | 651 W/m² | - |
| 1787600558 | 34.44° C | 37% | 1015 hPa | 0 mm | - | 661 W/m² | - |
* Rain latest hour (hover to see other rain measurements)
** Current wind speed in m/s (hover to see current wind gust speed)